EHI
0 0 1 1 3 7 9 8 7 6 5 4 3 1 0 0 0 0 0 0 0 0 0 0 0 0 0 0 0 0 0 0 0 0 0 0 0 0 0 0 0 0 0
1 1 1 2 3 6 7 7 7 7 6 5 3 2 0 0 0 0 0 0 0 0 0 0 0 0 0 0 0 0 0 0 0 0 0 0 0 0 0 0 0 0 0
2 2 2 3 3 4 5 5 6 7 7 5 3 1 0 0 0 0 0 0 0 0 0 0 0 0 0 0 0 0 0 1 0 0 0 0 0 0 0 0 0 0 0
3 3 3 3 3 3 3 4 5 6 6 6 3 1 0 0 0 0 0 0 0 0 0 0 0 0 0 0 0 0 0 0 0 0 0 0 0 1 0 0 0 0 0
3 3 4 4 3 3 3 3 4 5 6 5 3 1 0 0 0 0 0 0 0 0 0 0 0 0 0 0 0 1 0 0 0 0 0 0 0 0 0 0 0 0 0
3 3 5 6 4 3 3 3 3 4 4 3 2 1 0 0 0 0 0 1 1 0 0 0 0 0 0 0 1 2 1 0 0 0 0 0 0 0 0 0 0 0 0
4 4 6 8 6 3 2 3 3 2 1 1 1 0 1 1 1 1 1 2 1 0 0 0 0 0 0 0 0 1 0 0 0 0 0 0 0 0 0 0 0 0 0
6 6 7 7 5 3 2 2 2 1 0 0 0 0 1 1 1 2 2 2 2 0 0 0 0 0 0 0 0 0 0 0 0 0 0 0 0 0 0 0 0 0 0
6 6 5 4 3 2 1 1 2 2 1 0 0 0 0 0 1 1 2 2 2 1 0 0 0 0 0 0 1 1 0 0 0 0 0 0 0 0 0 0 0 0 0
4 4 3 2 1 1 0 0 1 2 2 1 0 0 0 0 0 0 1 2 2 1 0 0 0 0 0 0 2 2 1 0 0 0 0 0 0 0 0 0 0 0 0
5 4 2 1 0 0 0 0 0 1 2 1 0 0 0 0 0 0 0 1 1 1 1 1 0 0 0 0 2 3 1 0 0 0 0 0 0 0 0 0 0 0 0
9 7 4 1 0 0 0 0 0 1 1 0 0 0 0 0 0 0 0 0 0 1 2 1 1 0 0 0 1 2 1 0 0 0 0 0 0 0 0 0 0 0 0
14 11 7 3 1 0 0 0 0 0 0 0 0 0 0 0 0 0 0 0 0 1 2 2 1 0 0 0 0 0 0 0 0 0 0 0 0 0 0 0 0 0 0
17 15 10 5 2 0 0 0 0 0 0 0 0 0 0 0 0 0 0 0 0 0 1 1 1 0 0 0 0 0 0 0 0 0 0 0 0 0 0 0 0 0 0
18 17 13 7 3 1 0 0 0 0 0 0 0 0 0 0 0 0 0 0 0 0 0 0 0 0 0 0 0 0 0 0 0 0 0 0 0 0 0 0 0 0 0
17 17 14 9 5 2 2 2 1 0 0 0 0 0 0 0 0 0 0 0 0 0 0 0 0 0 0 0 0 0 0 0 0 0 0 0 0 0 0 0 0 0 0
15 15 13 10 6 4 4 3 1 0 0 0 0 0 0 0 0 0 0 0 0 0 0 0 0 0 0 0 0 0 0 0 0 0 0 0 0 0 0 0 0 0 0
16 14 12 10 8 7 6 4 2 0 0 0 0 0 0 0 0 0 0 0 0 0 0 0 0 0 0 0 0 0 0 0 0 0 0 0 0 0 0 0 0 0 0
20 18 15 12 10 8 6 4 1 0 0 0 0 0 0 0 0 0 0 0 0 0 0 0 0 0 0 0 0 0 0 0 0 0 0 0 0 0 0 0 0 0 0
25 23 20 16 11 7 5 3 1 0 0 0 0 1 0 0 0 0 0 0 0 0 0 0 0 0 0 0 0 0 0 0 0 0 0 0 0 0 0 0 0 0 0
30 28 25 21 14 8 5 4 2 1 1 1 0 0 0 0 1 1 0 0 0 0 0 0 0 0 0 0 0 0 0 0 0 0 0 0 0 0 0 0 0 0 0
35 33 31 27 19 12 7 5 3 2 2 1 0 0 0 1 1 1 1 1 0 0 0 0 0 0 0 0 0 0 0 0 0 0 0 0 0 0 0 0 0 0 0
43 40 37 31 24 18 11 8 7 6 4 3 2 2 2 3 2 2 2 2 1 0 0 0 0 0 0 0 0 0 0 0 0 0 0 0 0 0 0 0 0 0 0
53 47 40 34 28 23 17 13 12 12 9 7 5 3 3 4 4 3 2 2 1 0 0 0 0 0 0 0 0 0 0 0 0 0 0 0 0 0 0 0 0 0 0
58 53 46 40 33 27 23 20 18 15 11 9 6 4 3 4 4 4 3 2 1 0 0 0 0 0 0 0 0 0 0 0 0 0 0 0 0 0 0 0 0 0 0
57 56 53 46 37 29 26 25 21 16 11 9 7 5 3 3 3 4 3 2 1 0 0 0 0 0 0 0 0 0 0 0 0 0 0 0 0 0 0 0 0 0 0
Wind_Speed
4 5 12 13 14 15 16 16 17 17 17 17 17 17 17 17 16 16 15 15 15 15 16 16 16 16 16 16 17 17 17 17 17 17 17 17 17 16 16 16 15 12 16
8 7 14 14 14 15 15 16 16 16 16 17 17 17 17 16 16 16 15 16 16 16 16 16 16 16 16 16 16 16 16 16 16 16 16 16 16 15 16 15 14 11 16
10 7 11 14 14 14 14 15 15 16 16 16 16 16 16 16 16 16 16 16 16 16 16 16 16 16 16 16 16 16 16 16 16 16 15 10 11 14 15 15 15 15 15
10 7 9 14 14 14 14 14 15 15 15 15 15 15 15 15 15 15 15 15 16 16 16 16 16 16 16 15 15 15 15 15 15 14 8 8 9 13 14 15 15 15 14
8 7 9 15 15 14 14 14 14 15 15 15 15 14 15 14 15 15 15 15 15 15 15 15 15 15 15 14 14 14 15 14 14 11 8 7 7 12 14 14 14 14 14
8 6 10 15 15 14 14 14 14 14 14 14 14 14 14 14 14 14 14 14 14 14 14 14 14 14 13 13 14 14 14 14 12 8 8 7 7 11 13 13 13 13 13
8 6 9 15 15 14 14 13 13 13 13 13 13 13 13 13 13 13 13 13 13 13 14 14 13 13 12 13 13 13 13 13 9 8 7 6 7 11 12 13 13 13 12
8 7 8 14 15 14 13 13 13 13 13 13 13 13 13 13 12 12 12 12 13 13 13 13 12 11 11 12 12 12 12 12 9 8 6 6 8 10 12 12 12 12 12
7 6 5 7 9 13 13 12 12 12 12 12 12 12 12 12 12 11 11 11 12 12 12 12 11 10 11 11 12 12 11 11 7 5 6 5 8 10 11 11 11 11 11
6 5 5 5 5 5 7 11 12 12 12 12 12 12 11 11 11 11 10 10 11 11 11 11 10 10 10 10 10 11 11 10 6 5 4 5 9 10 11 11 10 10 10
7 5 5 5 5 5 5 8 9 10 10 10 9 11 9 4 5 6 8 9 10 10 9 9 9 9 9 8 10 11 9 4 5 4 3 7 9 9 10 10 10 10 10
10 7 5 6 5 5 5 4 3 3 4 4 4 5 4 4 3 5 6 8 9 9 8 8 8 8 6 4 6 8 3 5 4 3 4 8 8 9 9 9 9 9 9
11 10 7 6 5 5 3 3 2 2 3 4 4 5 4 3 2 3 2 3 3 5 4 5 5 3 3 3 3 3 4 4 3 3 4 8 7 8 8 8 8 8 8
10 10 8 7 6 4 4 3 3 3 2 3 3 4 3 2 2 2 2 2 2 2 3 3 2 3 3 3 4 4 4 3 3 2 4 8 7 8 8 8 7 7 7
11 10 9 8 7 5 4 4 4 3 3 3 3 3 4 3 2 2 1 1 2 2 2 2 2 2 2 2 3 4 4 4 4 3 3 7 8 7 7 7 7 7 7
12 10 9 9 8 6 5 4 4 3 3 3 3 3 4 3 3 2 2 1 1 1 1 1 2 2 1 2 2 3 3 3 4 4 3 5 8 8 8 8 8 8 8
12 10 10 10 8 7 6 5 4 3 3 3 3 3 4 4 3 3 2 2 1 1 1 1 2 2 1 1 1 2 2 3 4 4 4 3 4 7 9 9 9 8 8
10 10 10 11 9 8 6 5 4 4 4 3 3 3 4 4 4 3 3 2 2 2 2 2 1 1 1 1 1 1 2 2 3 4 3 3 3 3 6 9 9 9 9
11 11 11 9 10 9 7 5 4 4 4 4 3 3 4 5 5 4 3 2 3 2 2 2 1 2 1 1 1 1 1 2 3 4 5 5 5 4 4 6 9 9 11
10 10 10 9 9 8 6 4 3 3 4 3 4 4 5 5 6 5 3 4 3 3 2 2 2 1 1 1 1 0 1 2 2 4 5 5 5 6 6 6 5 6 10
10 10 11 10 9 8 6 6 5 5 4 4 4 5 6 6 6 5 4 4 4 4 4 3 2 2 1 1 1 1 1 1 3 3 4 4 5 6 6 6 5 5 5
13 13 11 11 11 10 8 6 3 3 3 4 4 5 6 6 7 6 5 5 5 4 4 4 3 2 1 2 2 1 1 2 2 3 3 5 6 5 6 7 7 7 6
14 14 12 11 10 10 8 4 3 2 2 2 3 4 6 7 7 6 6 5 5 5 5 5 5 5 3 2 2 3 2 3 2 2 3 4 4 4 5 6 7 8 8
14 11 11 11 10 9 9 8 8 6 6 6 4 4 5 6 6 7 7 7 6 5 5 6 5 4 4 3 2 2 2 3 2 2 2 2 4 5 6 5 6 7 7
11 10 10 9 9 9 9 9 9 6 5 3 3 5 5 5 6 7 7 6 6 5 6 6 5 5 4 4 4 3 2 1 2 2 3 3 2 3 4 5 5 6 6
8 8 9 10 9 9 10 9 9 8 7 5 5 5 5 4 4 6 7 6 6 6 6 6 6 6 5 5 4 4 4 3 4 4 4 3 3 3 3 4 5 5 5
Wind_Direction
147 146 134 124 117 113 111 112 111 111 111 112 113 114 114 113 112 111 109 107 106 105 105 106 106 106 106 105 105 106 107 107 107 107 107 106 104 103 102 101 100 99 101
142 144 137 128 121 117 114 114 113 113 113 113 114 115 115 115 114 113 111 109 107 106 106 107 107 106 106 106 106 106 107 107 108 108 106 105 105 105 104 104 103 104 103
135 138 136 131 124 120 118 117 116 115 115 115 115 115 116 116 116 115 113 111 109 108 107 107 107 107 106 106 105 106 105 105 105 103 100 98 103 106 106 106 104 104 104
134 131 135 133 129 125 122 119 117 115 116 116 115 116 116 116 116 115 113 112 111 110 109 109 108 108 108 108 107 107 106 106 104 101 93 96 102 107 107 106 105 106 106
128 129 142 136 131 127 124 121 119 118 117 116 117 117 117 117 117 116 115 114 113 112 112 111 110 110 110 111 111 109 109 108 104 97 90 90 97 109 109 109 109 108 107
127 133 145 138 134 131 128 126 123 121 120 119 119 119 119 119 119 118 116 116 115 115 114 113 112 112 112 114 113 111 111 110 103 97 94 97 103 112 112 112 112 109 109
132 135 144 141 139 135 133 130 128 126 124 123 122 121 120 120 120 120 118 117 117 116 115 114 113 112 114 117 116 114 114 115 107 102 99 99 106 112 113 113 113 110 109
137 135 143 147 144 141 139 136 133 130 128 128 126 125 123 122 121 121 120 120 119 118 117 116 115 113 117 119 118 118 118 119 114 110 105 106 114 115 115 114 114 113 112
132 131 136 143 145 146 144 140 138 136 134 132 131 129 127 124 123 122 122 122 121 121 120 119 117 114 118 119 122 124 125 122 115 116 117 113 121 122 121 119 118 117 116
128 129 130 128 129 135 142 146 145 143 140 137 135 133 130 129 127 124 121 123 123 123 122 121 118 113 117 119 124 128 129 121 117 116 116 127 128 128 126 125 124 123 121
150 138 135 132 129 128 138 153 148 147 146 141 138 136 124 99 102 116 128 130 127 126 125 122 119 112 110 115 125 126 121 118 123 122 125 137 138 136 132 130 129 128 127
169 163 149 144 140 140 151 132 121 124 124 112 106 108 99 96 107 119 135 134 131 127 124 119 115 105 95 95 115 119 115 128 129 136 147 148 149 146 141 138 138 135 133
171 171 162 154 148 145 133 127 112 107 108 109 113 113 111 100 96 91 86 104 103 106 90 93 87 84 97 107 110 119 131 137 143 150 158 159 159 156 151 149 147 143 142
172 175 166 160 153 152 141 137 128 127 126 127 130 130 124 117 112 109 95 91 83 84 91 82 86 90 103 120 131 139 144 149 157 157 170 170 170 167 163 162 160 158 157
178 177 171 167 165 159 147 154 149 147 146 146 144 146 144 143 146 137 122 113 109 103 108 107 98 93 108 127 146 156 157 162 169 172 178 183 182 182 178 177 177 174 174
182 180 173 174 171 163 163 164 156 158 156 155 164 170 164 159 159 156 149 146 141 127 121 117 110 102 111 134 153 162 166 168 177 180 184 195 195 192 194 195 194 191 191
182 178 177 177 172 172 173 176 167 163 161 170 179 180 178 175 174 168 169 179 182 147 131 108 94 85 105 128 155 169 169 174 182 187 189 198 208 210 209 208 206 206 207
177 177 180 184 177 179 178 176 164 164 173 183 181 180 189 190 183 174 181 197 178 147 138 130 118 101 103 132 167 190 180 184 196 198 200 204 210 219 224 221 217 217 219
179 178 180 184 180 181 178 175 171 169 184 188 182 186 195 195 189 180 188 195 168 153 157 171 140 143 154 166 195 208 203 210 213 212 214 214 214 218 226 235 233 229 230
179 179 182 184 180 174 170 167 170 179 190 189 190 199 195 194 191 183 186 187 169 163 170 166 153 137 152 166 181 187 246 233 224 226 226 223 222 223 224 230 235 240 240
179 181 185 184 179 172 174 180 183 193 191 194 200 201 196 195 191 187 190 182 178 183 187 176 157 157 162 136 100 8 325 257 236 233 231 230 231 229 225 227 230 233 241
186 187 188 190 184 183 187 183 176 167 183 192 196 198 199 198 193 195 189 188 185 180 180 181 167 158 170 159 147 119 331 324 283 238 227 227 233 230 231 231 229 231 236
190 191 192 192 189 187 178 160 142 127 119 172 195 200 203 200 197 195 192 192 190 187 193 193 180 175 181 185 174 157 171 234 287 292 250 237 231 228 235 239 236 234 233
193 187 188 186 186 185 176 176 175 182 190 197 192 197 198 198 200 198 192 194 191 192 197 199 191 184 173 190 196 201 189 170 185 289 297 261 245 237 237 238 240 238 234
185 183 183 181 185 182 182 187 188 195 195 177 174 190 199 201 203 202 196 193 194 198 203 201 189 191 189 191 190 182 184 188 193 199 263 285 277 251 242 240 240 241 238
175 179 181 182 188 184 185 189 193 194 185 175 186 197 202 200 204 207 202 197 199 201 204 205 200 197 201 201 200 192 181 184 196 196 226 251 263 269 255 244 240 242 241